ARIANE 5 DEB (SYLDA), 38554

Orbit data source: Space-Track

ARIANE 5 DEB (SYLDA), 38554 is space debris in HEO originally from a launch on Thu, 05 Jul 2012 UTC launched from the French Guiana (FRGUI). Debris objects in space refer to the collection of defunct objects orbiting the Earth. Examples of debris include non-operational satellites, rocket bodies, and fragments generated from explosions, collisions, or faulty payload assembly.

Loading next visibility...
Identifier
38554, 2012-035D
Orbit
HEO
Country
Flag of FRFR
Related business
Manufacturer
EADS/Bremen
Mission
Spacecraft
Bus & Motor
SYLDA 5, Unknown motor
Mass
440 kg wet, 440 kg dry
Launch date (UTC)
2012-07-05 (14 years ago)
Launch vehicle
Unknown
Launch site
French Guiana (FRGUI)
Object type
Payload
Rocket body
Debris
Shape & HBR
Cyl, 2.9 m
Radar Cross Section
28.451 m², Large (>1 m²)

Expand to show TLE details & history
Last TLE update: 16 hours ago

TLE from 16 hours ago
0 ARIANE 5 DEB (SYLDA)
1 38554U 12035D   26061.69221244  .00003456  00000-0  17600-2 0  9995
2 38554   5.8210  21.4295 5828379 225.6527  68.7306  4.23683329150823
Epoch: 2026-03-02T16:36Z
TLE epoch observation values (Epoch: 2026-03-02T16:36:47.154Z)
Latitude
0.00001°
Longitude
-28.20199°
Altitude
11,615.618 km
Speed
4.427 km/s
True Right ascension
01h 25m 54s
True Declination
0° 00' 00"
Sunlit
Object was in daylight at epoch
Visualization orbit readout
Latitude
Unknown
Longitude
Unknown
Altitude
Unknown
Speed
Unknown
Apparent Right ascension
Unknown
Apparent Declination
Unknown
Sunlit
N/A
Visualization observer readout
Local Sidereal Time
12:02:05
Azimuth
Unknown
Elevation
Unknown
Doppler factor
Unknown
Orbital elements
Apogee altitude
19,165.29 km
Perigee altitude
353.917 km
Semi-major axis
16,137.74 km
Eccentricity
0.58284
Inclination
5.821°
RAAN
21.4295°
Arg. of periapsis
225.6527°
True anomaly
134.45953°
Mean anomaly
68.7306°
Eccentric anomaly
101.4591°
Mean motion
1.05872 °/min
Orbital period
340.03 mins
BSTAR
0.00176
Loading maneuver chart data...
Computing Atmospheric mass density...
Loading historical data...
Loading historical data...
Loading historical data...
Loading historical data...
Loading historical data...
Loading historical data...
Loading historical data...

Documentation

Showing up to 5 results
|